SCOUT X-4 R/B, 871

Orbit data source: Space-Track

SCOUT X-4 R/B, 871 is space debris in LEO originally from a launch on Tue, 25 Aug 1964 UTC launched from the Air Force Western Test Range (AFWTR). Debris objects in space refer to the collection of defunct objects orbiting the Earth. Examples of debris include non-operational satellites, rocket bodies, and fragments generated from explosions, collisions, or faulty payload assembly.

Loading next visibility...
Identifier
871, 1964-051B
Orbit
LEO
Last TLE update
21 hours ago
Origin
Manufacturer
ABL
Mission
Spacecraft
Bus & Motor
ALTAIR, Unknown motor
Mass
33 kg wet, 33 kg dry
Launch date (UTC)
1964-08-25 (61 years ago)
Launch vehicle
Unknown
Launch site
Air Force Western Test Range (AFWTR)
Object type
Payload
Rocket body
Debris
Shape & HBR
Cyl, 1.5 m
Radar Cross Section
0.687 m², Medium (>0.1 m² and < 1m²)

Expand to show TLE details & history

TLE from 21 hours ago
0 SCOUT X-4 R/B
1 00871U 64051B   25185.85839346  .00000216  00000-0  13648-3 0  9993
2 00871  79.8938  91.5494 0086865 352.7378   7.2518 14.00480250 96240
Epoch: 2025-07-04T20:36Z
TLE epoch observation values (Epoch: 2025-07-04T20:36:05.194Z)
Latitude
0.00004°
Longitude
-140.57699°
Altitude
832.322 km
Speed
7.469 km/s
True Right ascension
06h 06m 11s
True Declination
0° 00' 00"
Sunlit
Object was in daylight at epoch
Visualization orbit readout
Latitude
22.33335°
Longitude
-137.35174°
Altitude
841.201 km
Speed
7.461 km/s
Apparent Right ascension
08h 40m 17s
Apparent Declination
-28° 51' 15"
Sunlit
Object is in daylight
Visualization observer readout
Local Sidereal Time
05:12:16
Azimuth
136.055° SSE
Elevation
5.963°
Doppler factor
1
Orbital elements
Apogee altitude
952.518 km
Perigee altitude
826.259 km
Semi-major axis
7,267.525 km
Eccentricity
0.00869
Inclination
79.8938°
RAAN
91.5494°
Arg. of periapsis
352.7378°
True anomaly
Unknown
Mean anomaly
7.2518°
Eccentric anomaly
Unknown
Mean motion
3.50319 °/min
Orbital period
102.76 mins
BSTAR
0.00013648
Loading maneuver chart data...
Loading SW <> Apogee altitude chart data...
Loading historical data...
Loading historical data...
Loading historical data...
Loading historical data...
Loading historical data...
Loading historical data...
Loading historical data...

SCOUT X-4 R/B Visibility forecast

Observer location: undefined°, undefined°

Span
Click to sort rows by Start time (UTC) header in descending order
Start Az.
Max El. time (UTC)
Max El. Az.
Max El.
End time (UTC)
End Az.
6 mins2025-07-05 17:18:56.217Z120.726° SE2025-07-05 17:21:56.217Z84.585° E16.858°2025-07-05 17:24:56.217Z50.354° ENE
9 mins2025-07-05 19:00:56.217Z210.251° SW2025-07-05 19:04:56.217Z274.128° WNW39.305°2025-07-05 19:09:56.217Z0.135° NNE
7 mins2025-07-06 04:02:56.217Z28.434° NE2025-07-06 04:05:56.217Z62.779° ENE19.119°2025-07-06 04:09:56.217Z107.597° ESE
10 mins2025-07-06 05:45:56.217Z338.389° N2025-07-06 05:50:56.217Z247.58° W40.651°2025-07-06 05:55:56.217Z186.658° SSW
|